This is the latest recevied weather packets stored in our database for station/object PA3CPS. If no packets are shown the sender has not sent any weather packets the latest 1 day(s).
| Time | Temp. | Humidity | Pressure | Rain* | Wind** | Luminosity | Snow |
|---|---|---|---|---|---|---|---|
| 1836274618 | 16.67° C | 81% | 1013.8 hPa | 0 mm | 0.89 m/s, 111° | 0 W/m² | - |
| 1836274469 | 16.67° C | 82% | 1013.7 hPa | 0 mm | 0.45 m/s, 131° | 0 W/m² | - |
| 1836274317 | 16.67° C | 81% | 1013.8 hPa | 0 mm | 0.45 m/s, 156° | 0 W/m² | - |
| 1836274167 | 16.67° C | 82% | 1013.8 hPa | 0 mm | 0.89 m/s, 141° | 0 W/m² | - |
| 1836274018 | 16.67° C | 81% | 1014 hPa | 0 mm | 0.89 m/s, 116° | 0 W/m² | - |
| 1778026915 | 9.44° C | 84% | 1008.3 hPa | 0 mm | 2.68 m/s, 356° | 0 W/m² | - |
| 1778026614 | 9.44° C | 84% | 1008.3 hPa | 0 mm | 2.24 m/s, 353° | 0 W/m² | - |
| 1778026313 | 9.44° C | 84% | 1008.3 hPa | 0 mm | 2.68 m/s, 349° | 0 W/m² | - |
| 1778026012 | 9.44° C | 84% | 1008.4 hPa | 0 mm | 1.79 m/s, 18° | 0 W/m² | - |
| 1778025710 | 9.44° C | 84% | 1008.5 hPa | 0 mm | 2.24 m/s, 310° | 0 W/m² | - |
| 1778025410 | 9.44° C | 84% | 1008.5 hPa | 0 mm | 3.58 m/s, 2° | 0 W/m² | - |
| 1778025111 | 9.44° C | 84% | 1008.5 hPa | 0 mm | 2.24 m/s, 36° | 0 W/m² | - |
| 1778024807 | 9.44° C | 84% | 1008.6 hPa | 0 mm | 2.24 m/s, 323° | 0 W/m² | - |
| 1778024506 | 9.44° C | 84% | 1008.6 hPa | 0 mm | 2.68 m/s, 351° | 0 W/m² | - |
| 1778024206 | 9.44° C | 84% | 1008.6 hPa | 0 mm | 2.68 m/s, 353° | 0 W/m² | - |
| 1778023904 | 10° C | 84% | 1008.6 hPa | 0 mm | 2.24 m/s, 345° | 0 W/m² | - |
| 1778023603 | 9.44° C | 84% | 1008.8 hPa | 0 mm | 1.79 m/s, 11° | 0 W/m² | - |
| 1778023301 | 10° C | 84% | 1008.7 hPa | 0 mm | 3.13 m/s, 345° | 0 W/m² | - |
| 1778022998 | 10° C | 84% | 1008.8 hPa | 0 mm | 1.79 m/s, 331° | 0 W/m² | - |
| 1778022697 | 10° C | 84% | 1008.8 hPa | 0 mm | 2.24 m/s, 354° | 0 W/m² | - |
| 1778022396 | 10° C | 84% | 1008.8 hPa | 0 mm | 3.13 m/s, 298° | 0 W/m² | - |
| 1778022095 | 10° C | 84% | 1008.8 hPa | 0 mm | 2.24 m/s, 0° | 0 W/m² | - |
| 1778021794 | 10° C | 84% | 1008.8 hPa | 0 mm | 1.79 m/s, 6° | 0 W/m² | - |
| 1778021492 | 10° C | 84% | 1008.7 hPa | 0 mm | 2.68 m/s, 8° | 0 W/m² | - |
| 1778021191 | 10° C | 84% | 1008.9 hPa | 0 mm | 1.79 m/s, 339° | 0 W/m² | - |
* Rain latest hour (hover to see other rain measurements)
** Current wind speed in m/s (hover to see current wind gust speed)